Location: Newark
(33.2404°N, 35.6778°E)
Time: 13:57:58
(UTC+00:00)

Hubble Space Telescope - Visible Passes

Search period start: 29 January 2020 00:00
Search period end: 08 February 2020 00:00
Orbit: 536 x 540 km, 28.5° (Epoch: 28 January)

Date Brightness Start Highest point End Pass type
(mag) Time Alt. Az. Time Alt. Az. Time Alt. Az.
30 Jan 3.4 02:23:18 12° SSE 02:23:53 13° SSE 02:25:42 10° SE visible
30 Jan 2.4 04:00:54 10° SW 04:04:32 31° SSE 04:08:12 10° ESE visible
31 Jan 3.3 02:13:40 15° SSE 02:13:40 15° SSE 02:15:39 10° ESE visible
31 Jan 2.1 03:50:07 10° SW 03:53:52 34° S 03:57:38 10° ESE visible
01 Feb 3.4 02:03:55 16° SE 02:03:55 16° SE 02:05:23 10° ESE visible
01 Feb 1.9 03:39:23 10° WSW 03:43:12 38° S 03:47:02 10° ESE visible
02 Feb 3.6 01:54:05 14° ESE 01:54:05 14° ESE 01:54:59 10° ESE visible
02 Feb 1.7 03:29:25 14° WSW 03:32:33 40° S 03:36:26 10° ESE visible
03 Feb 3.9 01:44:10 12° ESE 01:44:10 12° ESE 01:44:30 10° ESE visible
03 Feb 1.6 03:19:30 20° WSW 03:21:54 42° S 03:25:48 10° ESE visible
04 Feb 1.5 03:09:32 27° SW 03:11:14 43° S 03:15:09 10° ESE visible
05 Feb 1.5 02:59:32 35° SW 03:00:35 42° S 03:04:30 10° ESE visible
06 Feb 1.4 02:49:32 40° SSW 02:49:56 41° S 02:53:49 10° ESE visible
07 Feb 1.7 02:39:31 38° S 02:39:31 38° S 02:43:07 10° ESE visible
